Regional Weather Roundup
Issued by NWS

Home | Current Version | Previous Version | Text Only | Print | Product List | Glossary Off
Versions: 1 2 3 4 5 6 7 8 9 10 11 12 13 14 15 16 17 18 19 20 21 22 23 24 25 26 27 28 29 30 31 32 33 34 35 36 37 38 39 40 41 42 43 44 45 46 47 48 49 50

000
ASUS43 KIND 120709
RWRIN

WEATHER ROUNDUP FOR INDIANA
NATIONAL WEATHER SERVICE INDIANAPOLIS IN
300 AM EDT SAT JUL 12 2014

NOTE: "FAIR" INDICATES FEW OR NO CLOUDS BELOW 12,000 FEET WITH NO
SIGNIFICANT WEATHER AND/OR OBSTRUCTIONS TO VISIBILITY.

* - STATION DOES NOT REPORT WEATHER SUCH AS PRECIPITATION OR FOG.

+ - STATION NOT QUALITY CONTROLLED BY THE NATIONAL WEATHER SERVICE.
    USE DATA WITH CAUTION...ESPECIALLY DEWPOINT AND RELATIVE
    HUMIDITY OBSERVATIONS.

INZ001>003-010>013-019-020-120800-
NORTHWEST INDIANA

CITY           SKY/WX    TMP DP  RH WIND       PRES   REMARKS
GARY /AIRPORT/ CLOUDY    73  62  66 SE3       30.12F
KNOX *+        CLOUDY    67  62  84 CALM      30.13F
LA PORTE +     CLOUDY    68  62  82 CALM      30.14F
MICHIGAN CITY+ CLOUDY    70  57  64 CALM      30.12F
MONTICELLO +   CLOUDY    69  63  80 CALM      30.14F
RENSSELAER +   CLOUDY    70  64  83 SE3       30.14F
VALPARAISO     CLOUDY    70  61  73 SE3       30.14F

$$

LMZ046-743>745-120800-
SOUTHERN LAKE MICHIGAN

STATION/POSITION TIME  TEMP WIND        PRES
                       AIR  DIR/SP/G
                 (UTC) (F)  (DEG/KT/KT) (MB)
MICHIGAN CITY    0700   73  140/  8/ 10   N/A

$$

INZ004-005-014>016-021>024-120800-
NORTH CENTRAL INDIANA

CITY           SKY/WX    TMP DP  RH WIND       PRES   REMARKS
GOSHEN         CLOUDY    69  64  84 SE5       30.14F
LOGANSPORT +   CLOUDY    66  61  82 SE3       30.16S
PERU/GRISSOM   CLOUDY    69  67  94 S6        30.16F
ROCHESTER +    CLOUDY    72  63  73 CALM      30.15F
SOUTH BEND     CLOUDY    70  60  70 S3        30.14F
WARSAW +       CLOUDY    68  63  83 CALM      30.15F

$$

INZ006>009-017-018-025>027-120800-
NORTHEAST INDIANA

CITY           SKY/WX    TMP DP  RH WIND       PRES   REMARKS
ANGOLA *+      MOCLDY    66  57  72 CALM      30.16F
AUBURN +       MOCLDY    66  59  77 CALM      30.17F
FORT WAYNE     CLOUDY    70  63  78 S3        30.17F
HUNTINGTON +   CLOUDY    68  63  83 CALM      30.16F

$$

INZ028-029-035-036-043>045-051>053-120800-
WEST CENTRAL INDIANA

CITY           SKY/WX    TMP DP  RH WIND       PRES   REMARKS
GREENCASTLE +  CLOUDY    68  63  83 CALM      30.17S
LAFAYETTE      CLOUDY    68  62  81 E5        30.14F
TERRE HAUTE    LGT RAIN  71  64  78 CALM      30.16R

$$

INZ030>032-037>040-046>048-054>057-064-065-120800-
CENTRAL INDIANA

CITY           SKY/WX    TMP DP  RH WIND       PRES   REMARKS
CP ATTERBURY + FOG       59  57  94 CALM      30.17F VSB 1
INDIANAPOLIS   MOCLDY    68  60  75 SE6       30.16S
-EAGLE CREEK   MOCLDY    69  61  75 CALM      30.16S
KOKOMO *+      CLOUDY    66  63  88 CALM      30.16F
MARION +       CLOUDY    66  62  87 CALM      30.17F
MT COMFORT *+  PTCLDY    63 N/A N/A CALM      30.18S
SHELBYVILLE    CLEAR     64  59  83 E3        30.16F
ZIONSVILLE +   MOCLDY    67  63  85 CALM      30.17F

$$

INZ033-034-041-042-049-050-058-059-120800-
EAST CENTRAL INDIANA

CITY           SKY/WX    TMP DP  RH WIND       PRES   REMARKS
MUNCIE         MOCLDY    67  61  81 CALM      30.18F

$$

INZ060-061-067>069-081>083-085>088-120800-
SOUTHWEST INDIANA

CITY           SKY/WX    TMP DP  RH WIND       PRES   REMARKS
EVANSVILLE     MOCLDY    72  66  81 CALM      30.15F
HUNTINGBURG *+ MOCLDY    70  63  78 S3        30.16S
WASHINGTON +   CLOUDY    69  66  90 CALM      30.15S

$$

INZ062-063-066-070>080-084-089>092-120800-
SOUTH CENTRAL AND SOUTHEAST INDIANA

CITY           SKY/WX    TMP DP  RH WIND       PRES   REMARKS
BLOOMINGTON    CLOUDY    66  63  90 CALM      30.17S

$$



USA.gov is the U.S. government's official web portal to all federal, state and local government web resources and services.